Content
SEND FEEDBACK

Daily
Averages
Monthly
Summary
Mexico

CANCUN, QUINTANA ROO


Home > North America > Mexico > Quintana Roo
Elevation: 30 feet     Latitude: 21 09N     Longitude: 086 49W

WEATHER
 
SELECT A DAY
Number of Records: 166,321;   Date Range: 1/1/95 - 10/19/14
 
SHARE

PRINT THIS DATA

[ ← Previous Day ]
WEATHER ALMANAC - AUGUST 21, 2013
[ Next Day → ]
[ °C ]   °F
Weather ElementAverageHighLow
Temperature82.1 °F87.8 °F (12:43 pm)75.2 °F (2:40 am)
Dewpoint76.2 °F77 °F (7:44 am)73.4 °F (2:40 am)
Humidity82.9 %94 % (1:40 am)70 % (12:43 pm)
Barometer29.96 in29.99 in (9:43 am)29.89 in (3:41 pm)
Wind Speed4.4 mph11.5 mph (11:46 am)
Weather ElementAverage
Visibility6.9 mi
Wind DirectionENE (70 °)

Weather ElementTotal
Precipitation---
Cooling Degree Days16.5 (Base 65)
Growing Degree Days31.5 (Base 50)
Averaged from 23 records on August 21, 2013
WEATHER CONDITIONS BREAKOUT
WIND DIRECTION BREAKOUT
WEATHER BY HOUR - AUGUST 21, 2013
[ °C ]   °F
Local TimeTemperatureDewpointHumidityBarometerVisibilityWind DirectionWind SpeedGust SpeedPrecipitationEventsConditions
1:40 AM77.0 °F75.2 °F94 %29.98 in7.0 miCalmPartly Cloudy
2:40 AM75.2 °F73.4 °F94 %29.96 in7.0 miNorth (10°)3.5 mphPartly Cloudy
3:43 AM75.2 °F73.4 °F94 %29.94 in7.0 miWNW (300°)3.5 mphPartly Cloudy
4:42 AM75.2 °F73.4 °F94 %29.94 in7.0 miNorth (350°)4.6 mphPartly Cloudy
5:45 AM75.2 °F73.4 °F94 %29.94 in7.0 miNorth (10°)2.3 mphPartly Cloudy
6:46 AM77.0 °F75.2 °F94 %29.95 in7.0 miNE (40°)2.3 mphScattered Clouds
7:44 AM82.4 °F77.0 °F84 %29.96 in7.0 miCalmScattered Clouds
8:46 AM84.2 °F77.0 °F79 %29.97 in7.0 miESE (110°)5.8 mphScattered Clouds
9:43 AM84.2 °F77.0 °F79 %29.99 in7.0 miNE (40°)5.8 mphMostly Cloudy
10:44 AM86.0 °F77.0 °F74 %29.98 in7.0 miEast (80°)8.1 mphMostly Cloudy
11:46 AM86.0 °F77.0 °F74 %29.99 in7.0 miEast (100°)11.5 mphMostly Cloudy
12:43 PM87.8 °F77.0 °F70 %29.99 in6.0 miENE (70°)10.4 mphMostly Cloudy
1:47 PM87.8 °F77.0 °F70 %29.96 in6.0 miEast (100°)11.5 mphMostly Cloudy
2:42 PM87.8 °F77.0 °F70 %29.95 in7.0 miEast (90°)8.1 mphMostly Cloudy
3:41 PM87.8 °F77.0 °F70 %29.89 in7.0 miEast (90°)8.1 mphMostly Cloudy
4:41 PM86.0 °F77.0 °F74 %29.91 in7.0 miENE (70°)8.1 mphMostly Cloudy
5:43 PM86.0 °F77.0 °F74 %29.91 in7.0 miENE (70°)5.8 mphMostly Cloudy
6:48 PM84.2 °F77.0 °F79 %29.92 in7.0 miEast (80°)2.3 mphMostly Cloudy
7:40 PM82.4 °F77.0 °F84 %29.94 in7.0 miCalmMostly Cloudy
8:42 PM80.6 °F77.0 °F89 %29.95 in7.0 miCalmMostly Cloudy
9:42 PM80.6 °F77.0 °F89 %29.97 in7.0 miCalmMostly Cloudy
10:45 PM80.6 °F77.0 °F89 %29.99 in7.0 miCalmMostly Cloudy
11:45 PM78.8 °F77.0 °F94 %29.99 in7.0 miCalmMostly Cloudy
Hourly data recorded from MMUN, located miles away from Cancun, Quintana Roo







STORIES FROM OUR PARTNERS